This is the latest recevied weather packets stored in our database for station/object KG5TTF. If no packets are shown the sender has not sent any weather packets the latest 10 day(s).
| Time | Temp. | Humidity | Pressure | Rain* | Wind** | Luminosity | Snow |
|---|---|---|---|---|---|---|---|
| 1777669971 | 12.22° C | 31% | 1023.9 hPa | 0 mm | - | 200 W/m² | - |
| 1777669668 | 12.22° C | 28% | 1023.9 hPa | 0 mm | - | 874 W/m² | - |
| 1777669364 | 11.67° C | 31% | 1024.1 hPa | 0 mm | - | 883 W/m² | - |
| 1777669061 | 11.67° C | 33% | 1024.2 hPa | 0 mm | - | 178 W/m² | - |
| 1777668757 | 11.67° C | 33% | 1024.3 hPa | 0 mm | - | 450 W/m² | - |
| 1777668455 | 10.56° C | 35% | 1024.4 hPa | 0 mm | - | 525 W/m² | - |
| 1777668152 | 10.56° C | 34% | 1023.9 hPa | 0 mm | - | 152 W/m² | - |
| 1777667847 | 11.11° C | 33% | 1024.2 hPa | 0 mm | - | 168 W/m² | - |
| 1777667545 | 11.11° C | 34% | 1024.2 hPa | 0 mm | - | 227 W/m² | - |
| 1777667242 | 11.11° C | 35% | 1024.3 hPa | 0 mm | - | 175 W/m² | - |
| 1777666938 | 11.67° C | 33% | 1024.2 hPa | 0 mm | - | 217 W/m² | - |
| 1777666636 | 12.22° C | 33% | 1024.2 hPa | 0 mm | - | 241 W/m² | - |
| 1777666332 | 11.67° C | 32% | 1024.4 hPa | 0 mm | - | 1031 W/m² | - |
| 1777666029 | 11.11° C | 35% | 1024.4 hPa | 0 mm | - | 1036 W/m² | - |
| 1777665727 | 11.11° C | 36% | 1024.3 hPa | 0 mm | - | 413 W/m² | - |
| 1777665424 | 11.67° C | 33% | 1024.6 hPa | 0 mm | - | 179 W/m² | - |
| 1777665120 | 11.67° C | 32% | 1024.2 hPa | 0 mm | - | 188 W/m² | - |
| 1777664816 | 13.33° C | 31% | 1024.2 hPa | 0 mm | - | 233 W/m² | - |
| 1777664510 | 12.22° C | 37% | 1024.2 hPa | 0 mm | - | 1108 W/m² | - |
| 1777664208 | 12.22° C | 32% | 1024.3 hPa | 0 mm | - | 1071 W/m² | - |
| 1777663907 | 11.11° C | 34% | 1024.2 hPa | 0 mm | - | 1119 W/m² | - |
| 1777663604 | 11.11° C | 34% | 1024.3 hPa | 0 mm | - | 215 W/m² | - |
| 1777663301 | 11.11° C | 32% | 1024.6 hPa | 0 mm | - | 217 W/m² | - |
| 1777662998 | 11.67° C | 31% | 1024.2 hPa | 0 mm | - | 202 W/m² | - |
| 1777662695 | 13.33° C | 33% | 1024.2 hPa | 0 mm | - | 1101 W/m² | - |
* Rain latest hour (hover to see other rain measurements)
** Current wind speed in m/s (hover to see current wind gust speed)